Regional Weather Roundup
Issued by NWS

Home | Current Version | Previous Version | Graphics & Text | Print | Product List | Glossary On
Versions: 1 2 3 4 5 6 7 8 9 10 11 12 13 14 15 16 17 18 19 20 21 22 23 24 25 26 27
000
ASUS45 KBOU 181807
RWRCO

WEATHER ROUNDUP FOR COLORADO
NATIONAL WEATHER SERVICE DENVER/BOULDER CO
1100 AM MST SAT FEB 18 2017

NOTE: "FAIR" INDICATES FEW OR NO CLOUDS BELOW 12000 FEET WITH NO
SIGNIFICANT WEATHER AND/OR OBSTRUCTIONS TO VISIBILITY.

COZ001>005-013-030-031-181900-
...NORTHWEST COLORADO...

CITY           SKY/WX    TMP DP  RH WIND       PRES   REMARKS
CRAIG          CLOUDY    46  32  58 N5        29.81S
HAYDEN         FAIR      41  28  60 E5        29.81F
MEEKER         CLOUDY    48  29  47 S12G21    29.81S
MOUNT WERNER   NOT AVBL
STEAMBOAT SPGS FAIR      39  32  75 CALM      29.81F
WALDEN           N/A     37  27  65 SE7       29.85F
$$

COZ006>008-011-181900-
...WEST CENTRAL VALLEYS...

CITY           SKY/WX    TMP DP  RH WIND       PRES   REMARKS
GRAND JUNCTION CLOUDY    49  37  63 SE13      29.80F
MONTROSE       PTSUNNY   49  31  49 E15G23    29.82F
EAGLE          SUNNY     48  28  46 CALM      29.85F
RIFLE          CLOUDY    48  38  68 E7        29.80F
DELTA          CLOUDY    50  40  67 E3        29.81F
NUCLA          FAIR      45  36  70 W3        29.86S
$$

COZ017>023-064>068-181900-
...SOUTHWEST COLORADO...

CITY           SKY/WX    TMP DP  RH WIND       PRES   REMARKS
DURANGO        FAIR      44  35  70 E5        29.85F
CORTEZ         CLOUDY    50  33  52 W5        29.81F
PAGOSA SPRINGS FAIR      42  28  59 CALM      29.90F
TELLURIDE      PTSUNNY   39  24  55 CALM      29.86F
WOLF CREEK PAS PTSUNNY   25  25 100 S12G17    30.02F WCI  14
$$

COZ009-010-012-014-032>034-037-058>063-181900-
...CENTRAL COLORADO...

CITY           SKY/WX    TMP DP  RH WIND       PRES   REMARKS
ASPEN          FAIR      43  29  57 N6        29.83F
BUENA VISTA    FAIR      42  26  52 CALM      29.88F
COPPER MTN     NOT AVBL
BERTHOUD PASS  FAIR      27  16  63 SE15G24   29.96S WCI  15
COTTONWOOD PAS FAIR      39  25  56 CALM      29.92F
GUNNISON       FAIR      28  24  85 SE5       29.90F WCI  23
KREMMLING      FAIR      48  32  53 CALM      29.85F
LEADVILLE      FAIR      31  22  69 S10       29.89F WCI  22
MONARCH PASS   FAIR      28  23  80 SW6       30.07S WCI  22
SALIDA         FAIR      46  28  49 CALM      29.95F
SUNLIGHT       NOT AVBL
WILKERSON PASS FAIR      34  21  60 CALM      29.98S
$$

COZ069>075-181900-
...SAN LUIS VALLEY/SANGRE DE CRISTO MOUNTAINS...

CITY           SKY/WX    TMP DP  RH WIND       PRES   REMARKS
ALAMOSA        FAIR      40  29  64 CALM      29.91S
LA VETA PASS   FAIR      43  25  49 NE6       29.96S
SAGUACHE       FAIR      43  28  56 S3        29.91S
$$

COZ035-036-038>040-181900-
...NORTHERN COLORADO FRONT RANGE...

CITY           SKY/WX    TMP DP  RH WIND       PRES   REMARKS
DENVER INTL AP PTSUNNY   56  21  25 SW6       29.76F
DMNS CITY PARK   N/A     57  22  25 N9        29.74F
AURORA         PTSUNNY   57  22  25 SW5       29.76F
FRONT RANGE AP PTSUNNY   59  21  23 SW5       29.76
ERIE MUNI ARPT FAIR      55  15  20 E7        29.75F
BOULDER MUN AP FAIR      52  21  30 NE5       29.75F
CENTENNIAL     PTSUNNY   57  21  24 CALM      29.76F
BROOMFIELD     PTSUNNY   55  18  22 E6        29.77F
FORT COLLINS   FAIR      52  21  29 E7        29.77F
LONGMONT       FAIR      55  20  26 NE5       29.77F
$$

COZ041-046-047-076>085-087-088-181900-
...PIKES PEAK/PALMER DIVIDE AND SOUTHERN FOOTHILLS...

CITY           SKY/WX    TMP DP  RH WIND       PRES   REMARKS
COLO. SPRINGS  PTSUNNY   50  16  25 S7        29.83F
A. F. ACADEMY  FAIR      51  16  24 S7        29.81F
SCHRIEVER AFB  FAIR      52  15  23 S8        29.83F
ELLICOTT       FAIR     N/A N/A N/A S9        29.81F
FALCON         FAIR      53  15  22 S10       29.84S
FORT CARSON    FAIR      49  17  28 S7        29.82S
LIMON          FAIR      52  22  30 S13       29.81F
MONUMENT HILL  FAIR      54  21  28 S6        29.82F
TRINIDAD       FAIR      56  18  22 VRB5      29.82F
$$

COZ042>045-048>051-090-091-181900-
...NORTHEAST COLORADO...

CITY           SKY/WX    TMP DP  RH WIND       PRES   REMARKS
GREELEY ARPT   FAIR      49  22  34 CALM      29.78F
AKRON          FAIR      57  23  26 S16       29.77F
BURLINGTON     FAIR      57  30  35 SE12      29.80F
WRAY           NOT AVBL
STERLING       FAIR      54  30  40 SW10      29.76F
HOLYOKE        FAIR      57  32  38 S17       29.77F
FORT MORGAN    FAIR      51  21  31 S5        29.78F
$$

COZ086-089-092>099-181900-
...SOUTHEAST COLORADO...

CITY           SKY/WX    TMP DP  RH WIND       PRES   REMARKS
PUEBLO         FAIR      47  24  40 SE6       29.82S
LA JUNTA       FAIR      49  25  39 CALM      29.81F
LAMAR          FAIR      50  27  40 NW7       29.80F
SPRINGFIELD      N/A     59  21  23 SE8       29.81F
$$




USA.gov is the U.S. government's official web portal to all federal, state and local government web resources and services.